Weather History for Tri-Cities, TN

Change the Weather History Date:

Monday, July 29, 2013

  Actual Average Record
Temperature  
Mean Temperature 68 °F 74 °F  
Max Temperature 80 °F 85 °F 102 °F (1952)
Min Temperature 55 °F 64 °F 55 °F (2013)
Degree Days  
Heating Degree Days 0 0  
Month to date heating degree days 0 0  
Since 1 June heating degree days 0 11  
Since 1 July heating degree days 0 0  
Cooling Degree Days 3 10  
Month to date cooling degree days 288 287  
Year to date cooling degree days 583 566  
Since 1 June cooling degree days 511 493  
Growing Degree Days 17 (Base 50)    
Moisture  
Dew Point 55 °F    
Average Humidity 67    
Maximum Humidity 97    
Minimum Humidity 37    
Precipitation  
Precipitation 0.00 in 0.15 in 1.77 in (2001)
Month to date precipitation 6.85 4.39  
Year to date precipitation 39.91 25.68  
Snow  
Snow 0.00 in 0.00 in - ()
Month to date snowfall 0.0 0.0  
Since 1 June snowfall 0.0 0.0  
Since 1 July snowfall 0.0 0.0  
Snow Depth 0.00 in    
Sea Level Pressure  
Sea Level Pressure 30.13 in    
Wind  
Wind Speed 2 mph (NNW)    
Max Wind Speed 12 mph    
Max Gust Speed 14 mph    
Visibility 8 miles    
Events Fog    
T = Trace of Precipitation, MM = Missing Value Source: NWS Daily Summary

Daily Weather History Graph

Daily Weather History Graph

Search for Another Location

Airport:

Trip Planner

Search our weather history database for the weather conditions in past years. The results will help you decide how hot, cold, wet, or windy it might be!

Date:

Astronomy

Jul. 29, 2013 Rise Set
Actual Time 6:33 AM EDT 8:37 PM EDT
Civil Twilight 6:05 AM EDT 9:06 PM EDT
Nautical Twilight 5:30 AM EDT 9:41 PM EDT
Astronomical Twilight 4:52 AM EDT 10:18 PM EDT
Moon 12:13 AM EDT (7/29) 1:59 PM EDT (7/29)
Length of Visible Light 15h 01m
Length of Day
14h 04m
Waning Gibbous, 51% of the Moon is Illuminated
Jul 29
Waning Gibbous
Jul 29
Last Quarter
Aug 6
New
Aug 14
First Quarter
Aug 20
Full

Hourly Weather History & Observations

Time (EDT) Temp. Dew Point Humidity Pressure Visibility Wind Dir Wind Speed Gust Speed Precip Events Conditions
12:53 AM 62.1 °F 57.0 °F 84% 30.04 in 10.0 mi Calm Calm - N/A   Clear
1:53 AM 60.1 °F 57.0 °F 90% 30.04 in 10.0 mi Calm Calm - N/A   Clear
2:53 AM 57.9 °F 55.0 °F 90% 30.04 in 10.0 mi Calm Calm - N/A   Clear
3:53 AM 57.9 °F 55.0 °F 90% 30.04 in 10.0 mi North 3.5 mph - N/A   Scattered Clouds
4:53 AM 57.0 °F 55.0 °F 93% 30.06 in 10.0 mi Calm Calm - N/A   Clear
5:53 AM 57.0 °F 54.0 °F 89% 30.07 in 10.0 mi Calm Calm - N/A   Partly Cloudy
6:53 AM 55.0 °F 53.1 °F 93% 30.10 in 6.0 mi Calm Calm - N/A   Partly Cloudy
7:10 AM 55.9 °F 54.0 °F 93% 30.16 in 10.0 mi NNE 3.5 mph - N/A   Scattered Clouds
7:18 AM 55.9 °F 54.0 °F 93% 30.17 in 2.0 mi Calm Calm - N/A   Mostly Cloudy
7:32 AM 55.9 °F 55.0 °F 97% 30.17 in 0.5 mi Calm Calm - N/A   Mostly Cloudy
7:53 AM 59.0 °F 57.9 °F 96% 30.12 in 0.5 mi Calm Calm - N/A Fog Fog
8:47 AM 60.8 °F 57.2 °F 88% 30.19 in 1.0 mi Calm Calm - N/A   Mostly Cloudy
8:53 AM 60.1 °F 59.0 °F 96% 30.13 in 1.0 mi Calm Calm - N/A   Mostly Cloudy
9:00 AM 61.0 °F 59.0 °F 93% 30.19 in 6.0 mi Calm Calm - N/A   Scattered Clouds
9:53 AM 66.0 °F 57.9 °F 75% 30.13 in 10.0 mi Variable 3.5 mph - N/A   Partly Cloudy
10:53 AM 70.0 °F 57.0 °F 63% 30.13 in 10.0 mi Calm Calm - N/A   Partly Cloudy
11:53 AM 72.0 °F 55.0 °F 55% 30.14 in 10.0 mi Calm Calm - N/A   Scattered Clouds
12:53 PM 75.0 °F 52.0 °F 44% 30.14 in 10.0 mi SW 4.6 mph - N/A   Scattered Clouds
1:53 PM 77.0 °F 53.1 °F 43% 30.14 in 10.0 mi SW 5.8 mph - N/A   Scattered Clouds
2:53 PM 77.0 °F 52.0 °F 42% 30.13 in 10.0 mi SW 6.9 mph - N/A   Scattered Clouds
3:53 PM 79.0 °F 50.0 °F 36% 30.12 in 10.0 mi Variable 5.8 mph - N/A   Scattered Clouds
4:53 PM 79.0 °F 52.0 °F 39% 30.11 in 10.0 mi NNW 6.9 mph - N/A   Scattered Clouds
5:53 PM 79.0 °F 51.1 °F 38% 30.11 in 10.0 mi North 3.5 mph - N/A   Mostly Cloudy
6:53 PM 78.1 °F 53.1 °F 42% 30.12 in 10.0 mi North 4.6 mph - N/A   Mostly Cloudy
7:53 PM 75.0 °F 54.0 °F 48% 30.13 in 10.0 mi Calm Calm - N/A   Mostly Cloudy
8:53 PM 66.9 °F 57.9 °F 73% 30.15 in 10.0 mi North 3.5 mph - N/A   Scattered Clouds
9:53 PM 64.0 °F 57.0 °F 78% 30.18 in 10.0 mi Calm Calm - N/A   Scattered Clouds
10:53 PM 62.1 °F 57.0 °F 84% 30.19 in 10.0 mi Calm Calm - N/A   Scattered Clouds
11:53 PM 61.0 °F 57.0 °F 87% 30.19 in 10.0 mi Calm Calm - N/A   Scattered Clouds